Terminal Aerodrome Forecast
Issued by NWS

Home | Current Version | Previous Version | Text Only | Print | Product List | Glossary On
Versions: 1 2 3 4 5 6 7 8 9 10 11 12 13 14 15
000
FTUS43 KMQT 221700
TAFIWD
TAF
KIWD 221720Z 2218/2318 17012G18KT P6SM SCT200
     FM230200 17011KT P6SM VCSH BKN060 WS020/21040KT
     FM231100 18010KT P6SM -SHRA OVC070 WS020/21040KT
     FM231300 18009KT P6SM -SHRA BKN025
      AMD LTD TO CLD VIS AND WIND=

USA.gov is the U.S. government's official web portal to all federal, state and local government web resources and services.